sat.trackr.live / text

‹ back to catalog

DUMMY SAT 3

NORAD 59479 · 2024-069A

PAYLOAD ACTIVE UNKNOWN

§ Identity

Operator
Country
CIS
Launch date
2024-04-11
Launch site
VOSTO
Launch vehicle
Mass (kg)
RCS (m²)

External: N2YO · Heavens-Above · Gunter

§ Orbital elements

Epoch: 2026-05-25T02:22:39.262656Z

Period
1,460.30 min
Inclination
2.0677°
Eccentricity
0.0051206
Mean motion
0.98609715 rev/d
Perigee alt
36,040.7 km
Apogee alt
36,477.4 km
Semi-major
42,637.2 km
B*
0.0000e+0
RAAN
81.6767°
Arg perigee
133.9330°
Mean anomaly
226.1245°
Rev number
758

§ Raw data

DUMMY SAT 31 59479U 24069A   26145.09906554 -.00000233  00000+0  00000+0 0  99982 59479   2.0677  81.6767 0051206 133.9330 226.1245  0.98609715  7586

JSON: /api/v1/satellites/59479 · /tle

For live sub-satellite position, see the globe view (requires WebGL).

§ Visibility from observer

Set your observer location to see the next 7 days of passes ≥ 10°. The values pass through the URL so the page stays shareable.

No JS? Fill the form by hand. The geolocation button needs JavaScript.